STARLINK-32595, 62037

Orbit data source: Space-Track

STARLINK-32595, 62037 is a payload satellite owned by SpaceX/Seattle (US) in LEO that was launched on Thu, 21 Nov 2024 UTC via an FALCON 9 launch vehicle from the Air Force Eastern Test Range (AFETR). Payload-class satellites include a variety of spacecraft equipped with specific instruments for various scientific and technological missions. These include communications satellites like Starlink; space stations such as the ISS; scientific satellites like the Hubble; Earth observation satellites from companies like Planet Labs, Umbra, and HawkEye 360; GPS; miniature CubeSats for education and research; and military/defense satellites.

Loading next visibility...
Identifier
62037, 2024-216F
Orbit
LEO
Last TLE update
4 hours ago
Origin
Manufacturer
SpaceX/Seattle
Mission
Operational Commercial Communications
Bus & Motor
STARLINK V2M, Unknown motor
Mass
730 kg wet, ~700 kg dry
Launch date (UTC)
2024-11-21 (7 months ago)
Launch vehicle
FALCON 9
Launch site
Air Force Eastern Test Range (AFETR)
Object type
Payload
Rocket body
Debris
Shape & HBR
Box + 2 Pan, 29 m
Radar Cross Section
36.964 m², Large (>1 m²)

Expand to show TLE details & history

TLE from 4 hours ago
0 STARLINK-32595
1 62037U 24216F   25182.22102557  .00021662  00000-0  79395-3 0  9998
2 62037  42.9952 243.6727 0000599 242.2045 117.8746 15.27597503 35347
Epoch: 2025-07-01T05:18Z
TLE epoch observation values (Epoch: 2025-07-01T05:18:16.609Z)
Latitude
Longitude
-115.4161°
Altitude
482.964 km
Speed
7.626 km/s
True Right ascension
16h 14m 41s
True Declination
0° 00' 00"
Sunlit
Object was in full shadow at epoch
Visualization orbit readout
Latitude
11.37244°
Longitude
51.2893°
Altitude
481.916 km
Speed
7.627 km/s
Apparent Right ascension
05h 33m 38s
Apparent Declination
-17° 03' 17"
Sunlit
Object is in daylight
Visualization observer readout
Local Sidereal Time
20:47:29
Azimuth
75.741° E
Elevation
-42.41°
Doppler factor
1
Orbital elements
Apogee altitude
485.354 km
Perigee altitude
484.532 km
Semi-major axis
6,863.08 km
Eccentricity
0.00006
Inclination
42.9952°
RAAN
243.6727°
Arg. of periapsis
242.2045°
True anomaly
Unknown
Mean anomaly
117.8746°
Eccentric anomaly
Unknown
Mean motion
3.81737 °/min
Orbital period
94.31 mins
BSTAR
0.00079395
Loading maneuver chart data...
Loading SW <> Apogee altitude chart data...
Loading historical data...
Loading historical data...
Loading historical data...
Loading historical data...
Loading historical data...
Loading historical data...
Loading historical data...

STARLINK-32595 Visibility forecast

Observer location: undefined°, undefined°

Span
Click to sort rows by Start time (UTC) header in descending order
Start Az.
Max El. time (UTC)
Max El. Az.
Max El.
End time (UTC)
End Az.
7 mins2025-07-01 10:20:15.216Z281.144° WNW2025-07-01 10:24:15.216Z22.237° NNE37.035°2025-07-01 10:27:15.216Z75.123° E
5 mins2025-07-01 12:01:15.216Z292.196° WNW2025-07-01 12:03:15.216Z64.083° ENE44.106°2025-07-01 12:06:15.216Z103.709° ESE
4 mins2025-07-01 13:40:15.216Z250.876° W2025-07-01 13:42:15.216Z198.281° SSW23.953°2025-07-01 13:44:15.216Z160.11° S
6 mins2025-07-02 08:14:15.216Z248.711° W2025-07-02 08:17:15.216Z84.702° E44.007°2025-07-02 08:20:15.216Z72.42° E
|